Wind_Speed
8 8 10 11 12 13 14 15 16 17 18 19 20 20 21 21 21 21 20 20 19 19 17 16 16 15 14 14 14 14 14 15 16 17 18 19 20 21 22 23 24 25 27
9 10 11 13 14 15 16 17 17 18 19 20 21 22 22 23 23 23 22 22 21 20 19 19 18 17 17 16 16 16 16 17 18 19 20 20 21 22 23 23 24 25 27
11 12 14 15 16 16 17 18 19 21 22 22 24 24 25 25 25 25 24 24 23 22 21 21 20 20 19 19 19 19 18 19 19 20 21 21 21 22 23 24 24 25 26
13 14 16 17 18 19 19 21 22 23 24 25 26 27 27 27 27 27 26 26 25 24 24 23 22 22 21 21 21 21 21 21 21 22 22 22 22 22 23 24 25 26 26
15 17 18 19 20 21 22 23 25 26 27 28 29 29 30 30 30 29 29 28 28 27 27 26 25 25 24 24 24 23 24 24 24 24 24 24 24 24 24 25 26 27 27
18 19 20 21 22 23 25 26 28 28 29 30 31 32 32 32 32 32 31 31 31 31 30 30 29 28 27 27 27 26 26 26 26 26 26 26 26 26 26 26 27 27 28
20 21 22 24 25 26 28 29 30 31 32 33 34 34 35 35 35 35 35 34 34 34 34 33 32 32 30 30 30 30 29 28 28 28 28 28 29 29 28 28 28 28 29
22 23 25 26 28 29 31 32 33 34 35 36 37 37 37 37 38 38 38 38 38 37 37 36 35 34 34 33 33 32 32 31 31 31 31 31 31 31 31 30 30 29 29
25 26 28 29 31 32 33 34 35 36 37 38 39 39 40 40 40 41 40 40 39 38 38 38 38 37 36 36 35 34 35 35 35 34 34 34 34 33 34 33 32 32 31
28 29 30 32 33 34 35 36 38 39 40 41 41 41 42 42 42 42 42 41 40 40 40 40 40 39 38 37 37 36 36 36 37 36 36 36 36 35 36 36 34 34 34
30 32 33 35 36 36 38 39 40 41 42 42 42 42 42 43 43 43 43 42 41 41 41 41 40 40 40 39 39 38 37 37 37 38 38 38 38 37 37 38 36 35 35
34 35 36 37 38 39 40 42 43 43 43 43 43 43 43 44 45 45 44 43 43 43 42 41 41 40 41 40 40 39 38 38 38 39 39 38 39 39 39 39 38 37 37
36 37 38 39 41 42 43 44 44 44 45 44 44 44 45 45 46 46 46 45 45 44 43 42 42 42 41 41 41 41 40 39 39 40 40 40 39 40 40 40 40 39 38
38 39 40 41 43 44 44 45 45 46 46 46 46 46 46 47 47 47 47 47 47 46 44 43 43 42 42 41 42 42 42 42 41 41 41 41 41 41 41 41 41 41 40
40 41 42 44 45 45 46 46 47 48 48 48 48 48 48 48 49 49 49 48 47 46 45 44 43 42 42 42 42 43 44 44 43 43 42 42 43 42 42 42 42 42 42
42 44 45 46 47 47 48 48 49 49 49 49 49 50 51 51 51 50 50 49 48 47 46 45 44 43 43 42 42 42 43 44 43 44 44 43 43 43 42 43 43 43 43
45 46 47 48 48 49 49 49 49 49 50 50 51 52 53 53 53 52 52 50 49 47 47 46 45 44 43 42 42 42 42 43 44 44 43 43 44 44 44 44 43 43 43
46 47 48 48 49 50 51 51 52 52 51 51 52 53 54 55 55 54 54 52 50 49 48 46 45 44 43 43 43 42 42 42 43 43 42 43 44 45 44 45 44 43 44
47 49 50 50 51 52 52 53 53 53 53 53 54 55 56 56 56 56 55 54 52 51 49 47 45 44 43 43 43 42 41 42 42 43 41 42 44 45 45 46 45 44 44
50 51 51 52 53 54 54 55 55 55 55 56 56 57 57 57 57 56 55 54 52 51 50 47 45 44 43 44 44 43 42 41 42 43 42 43 45 46 47 46 46 46 45
53 54 54 54 55 55 56 57 57 57 57 58 58 59 59 59 58 56 55 53 51 50 49 47 45 43 43 42 44 44 42 42 43 43 44 43 45 47 47 46 47 47 46
55 56 56 56 57 57 57 58 58 59 59 60 60 60 59 59 58 56 54 52 50 49 47 46 44 42 42 42 42 43 42 41 42 43 43 42 43 46 47 47 46 46 46
57 57 58 59 59 59 59 59 60 60 60 60 60 59 58 57 56 54 52 50 49 47 46 45 44 42 42 42 41 41 41 40 38 39 40 40 41 42 44 46 46 45 44
59 59 60 61 61 61 61 61 60 60 60 60 59 59 57 56 54 52 50 49 47 44 43 43 42 40 40 40 38 38 38 38 36 36 37 37 39 40 42 44 45 44 44
61 61 62 62 62 62 62 61 61 60 59 59 58 57 56 54 52 50 48 47 45 42 41 41 39 37 36 36 34 33 34 35 34 34 35 37 37 37 39 41 43 43 42
62 63 62 62 62 62 61 61 60 59 58 57 56 55 54 52 49 47 46 44 42 41 39 38 37 35 33 32 32 32 33 34 33 32 32 34 35 35 37 38 40 42 41
Wind_Direction
307 312 315 315 319 321 322 323 323 323 323 323 323 323 322 322 322 321 320 319 318 317 314 312 308 301 293 285 280 273 266 258 253 249 247 246 242 240 238 237 238 237 233
302 307 310 312 315 316 318 320 321 322 322 321 320 320 319 319 319 318 317 315 314 312 309 306 302 299 293 285 279 274 269 263 258 253 250 248 246 245 241 239 239 238 234
302 306 308 310 312 313 315 317 317 319 319 319 318 316 316 316 314 313 312 311 309 307 305 302 299 297 292 286 280 275 270 266 261 256 253 250 249 247 244 242 241 239 237
302 305 307 308 309 310 313 315 315 316 316 316 316 315 314 313 311 309 308 307 305 303 301 298 296 293 290 286 281 276 271 266 261 257 255 251 248 247 245 243 241 239 238
300 303 306 308 308 310 311 312 312 312 313 313 313 312 311 310 308 306 305 304 301 298 297 295 292 290 287 283 279 276 272 267 262 258 255 252 249 249 248 245 242 240 238
300 303 304 306 307 308 310 311 311 311 311 312 312 311 310 309 307 305 303 301 299 296 294 291 288 286 283 281 277 274 271 267 262 259 256 252 250 249 248 247 245 243 242
298 301 303 305 306 307 309 310 310 311 311 311 311 310 309 308 306 304 302 299 297 295 293 289 286 283 279 277 275 272 270 267 263 260 255 253 250 248 247 246 247 245 244
298 301 303 305 306 307 308 309 310 311 310 310 309 309 308 307 305 303 301 298 296 294 292 289 285 282 278 274 271 269 266 265 263 260 256 253 251 249 247 245 245 245 244
299 301 303 304 306 307 308 308 309 309 309 309 308 307 306 305 304 303 301 298 296 294 292 289 286 283 279 275 271 269 266 263 261 259 256 253 251 250 248 245 244 244 243
299 300 302 303 304 305 306 307 308 308 308 307 307 306 306 305 304 303 301 298 296 294 292 290 286 282 278 274 271 268 266 263 259 257 255 253 251 250 248 246 244 243 242
299 301 302 303 304 305 306 306 307 307 307 306 306 306 306 305 305 304 301 298 296 295 293 290 286 281 276 273 271 268 266 262 259 255 254 252 250 250 248 246 244 243 242
299 301 302 303 304 305 306 306 307 307 306 306 306 305 306 305 305 303 301 298 296 295 293 289 286 281 276 272 269 267 264 263 259 255 254 251 250 249 247 246 244 243 241
299 300 302 303 304 305 306 306 306 306 306 306 305 305 305 305 304 303 302 298 295 295 293 288 285 281 276 272 268 266 263 262 260 255 253 251 250 248 246 245 244 243 241
300 300 302 303 304 305 306 306 306 306 305 305 304 304 305 305 304 304 302 298 295 293 292 288 284 281 275 272 270 266 263 262 261 258 254 251 249 248 246 244 243 242 241
299 300 302 303 304 304 305 305 305 305 305 305 304 304 305 305 306 304 302 299 295 291 290 288 284 280 275 271 270 267 264 262 260 258 254 251 249 249 246 243 241 241 241
299 300 301 302 303 303 303 304 304 304 304 304 305 305 305 305 306 305 303 300 296 292 289 288 284 279 275 271 268 266 264 262 260 257 254 250 247 246 245 242 240 239 239
298 299 300 301 302 302 303 303 303 303 303 303 303 304 304 304 304 304 303 301 297 293 290 288 284 279 275 270 267 266 264 262 258 255 253 249 245 243 242 240 238 238 239
297 299 300 301 301 302 302 302 303 303 302 302 303 303 304 304 303 303 302 299 296 292 290 288 283 278 274 270 268 267 265 260 256 252 252 248 244 241 239 237 237 238 238
299 299 300 301 301 302 302 302 302 302 302 302 302 303 303 303 303 301 300 298 296 292 289 287 282 277 274 270 268 267 265 259 254 251 250 247 243 240 237 235 236 237 236
300 300 301 301 301 301 302 302 302 302 302 303 303 303 302 302 302 300 299 297 295 292 289 286 282 276 273 269 267 265 264 258 254 251 249 247 243 239 236 236 236 236 235
300 300 301 301 302 302 302 302 302 302 302 302 303 303 303 302 302 300 299 297 294 291 288 285 281 276 272 269 266 264 263 258 254 251 248 245 242 239 237 237 237 235 235
301 301 301 301 301 302 302 303 302 302 302 302 303 303 303 303 301 300 298 296 293 291 288 284 279 274 271 269 267 265 262 258 254 250 247 244 241 239 237 236 235 234 234
301 302 302 302 302 302 302 302 302 302 302 302 303 303 303 303 301 300 297 295 293 291 287 284 279 274 271 269 268 265 261 256 252 247 244 243 241 239 236 234 232 231 231
301 302 302 302 302 302 302 301 301 301 301 302 303 302 302 302 301 299 297 295 293 290 287 284 281 276 271 268 266 262 256 252 250 246 245 242 238 236 234 231 229 228 227
301 301 302 302 302 302 301 301 301 301 301 301 302 302 302 301 300 299 297 295 292 289 287 285 281 276 270 266 262 257 252 248 247 246 245 238 236 234 230 228 227 226 225
300 300 301 301 302 302 302 301 300 300 300 300 301 302 302 301 299 297 296 294 292 289 287 284 280 273 268 262 258 254 251 247 245 245 242 236 233 230 227 225 224 225 224
Height
5849 5848 5847 5845 5844 5842 5840 5838 5836 5833 5831 5828 5826 5823 5820 5817 5814 5812 5809 5807 5804 5802 5800 5798 5797 5795 5794 5794 5793 5793 5793 5794 5794 5795 5796 5797 5798 5799 5801 5802 5804 5806 5809
5846 5845 5844 5842 5841 5839 5837 5835 5832 5830 5827 5825 5822 5819 5816 5813 5810 5807 5805 5802 5800 5798 5796 5794 5792 5791 5790 5789 5789 5789 5789 5789 5789 5790 5790 5791 5792 5793 5795 5796 5798 5800 5802
5843 5842 5841 5839 5837 5835 5833 5831 5828 5826 5823 5820 5817 5814 5811 5808 5805 5802 5799 5797 5795 5792 5791 5789 5787 5786 5785 5784 5783 5783 5783 5783 5783 5784 5785 5785 5786 5787 5788 5790 5792 5793 5795
5840 5839 5837 5835 5833 5831 5829 5826 5824 5821 5818 5815 5811 5808 5805 5802 5799 5796 5793 5791 5788 5786 5784 5783 5781 5780 5779 5778 5777 5777 5776 5776 5777 5777 5778 5779 5780 5781 5782 5783 5785 5787 5789
5836 5835 5833 5831 5829 5826 5824 5821 5818 5815 5812 5808 5805 5801 5797 5794 5791 5788 5786 5783 5781 5779 5777 5775 5774 5772 5771 5770 5770 5769 5769 5769 5769 5770 5771 5772 5773 5774 5775 5776 5778 5780 5781
5832 5830 5828 5826 5823 5821 5818 5815 5811 5808 5805 5801 5797 5793 5790 5786 5782 5779 5777 5775 5772 5770 5768 5767 5765 5763 5762 5761 5761 5760 5760 5760 5761 5762 5763 5764 5766 5767 5768 5769 5770 5772 5774
5827 5825 5823 5820 5817 5815 5811 5808 5804 5801 5797 5793 5789 5784 5781 5777 5773 5769 5766 5764 5762 5759 5757 5756 5754 5753 5752 5751 5751 5750 5750 5751 5751 5752 5754 5755 5757 5758 5759 5761 5762 5764 5766
5821 5819 5816 5814 5811 5807 5804 5800 5796 5792 5788 5784 5779 5775 5771 5767 5762 5758 5755 5752 5749 5747 5745 5743 5742 5741 5740 5739 5739 5739 5739 5740 5740 5742 5743 5745 5746 5747 5749 5751 5753 5755 5757
5815 5812 5809 5806 5803 5800 5796 5792 5788 5784 5779 5774 5769 5764 5760 5755 5751 5746 5742 5739 5736 5734 5731 5729 5728 5727 5726 5725 5725 5726 5727 5728 5728 5730 5731 5733 5735 5737 5738 5741 5743 5746 5748
5808 5805 5802 5798 5795 5791 5787 5783 5778 5774 5769 5764 5759 5753 5748 5743 5738 5733 5729 5726 5723 5721 5718 5716 5713 5712 5711 5710 5710 5711 5713 5714 5715 5717 5719 5721 5723 5725 5727 5730 5733 5735 5738
5800 5797 5793 5789 5786 5782 5778 5773 5768 5763 5758 5753 5748 5743 5737 5731 5726 5721 5716 5712 5709 5706 5704 5702 5699 5697 5696 5696 5695 5697 5698 5699 5701 5702 5705 5708 5711 5713 5716 5719 5722 5725 5728
5791 5788 5784 5780 5776 5772 5767 5762 5757 5752 5746 5741 5736 5731 5725 5719 5714 5709 5704 5699 5695 5692 5689 5687 5684 5682 5682 5681 5681 5682 5683 5685 5686 5688 5691 5695 5698 5701 5704 5707 5710 5713 5717
5782 5778 5774 5770 5766 5761 5756 5751 5745 5740 5734 5729 5724 5719 5714 5708 5702 5696 5691 5686 5681 5677 5674 5672 5670 5668 5667 5668 5668 5668 5669 5670 5672 5674 5677 5681 5684 5688 5691 5694 5698 5701 5705
5772 5768 5764 5760 5755 5750 5745 5739 5733 5728 5722 5717 5712 5707 5701 5696 5690 5684 5678 5673 5668 5664 5660 5658 5656 5654 5653 5653 5654 5654 5655 5656 5657 5660 5663 5667 5670 5673 5677 5681 5685 5689 5693
5762 5757 5753 5748 5744 5738 5733 5727 5721 5716 5709 5704 5699 5693 5688 5683 5677 5670 5664 5658 5653 5650 5646 5644 5642 5640 5639 5639 5639 5639 5640 5641 5642 5645 5648 5651 5655 5659 5663 5667 5672 5676 5681
5751 5746 5742 5737 5731 5726 5721 5716 5709 5703 5697 5691 5685 5679 5674 5668 5662 5656 5650 5644 5639 5635 5631 5629 5627 5625 5624 5624 5624 5624 5624 5625 5627 5629 5633 5636 5640 5644 5649 5653 5658 5663 5668
5739 5734 5729 5724 5719 5713 5708 5703 5698 5692 5685 5678 5672 5666 5660 5654 5647 5641 5635 5630 5625 5620 5616 5613 5611 5609 5608 5608 5608 5609 5610 5611 5612 5614 5617 5620 5624 5629 5634 5639 5644 5650 5655
5726 5721 5716 5711 5706 5700 5695 5689 5683 5678 5673 5667 5660 5652 5646 5639 5632 5626 5620 5614 5610 5605 5601 5597 5595 5593 5593 5592 5593 5593 5594 5595 5597 5599 5602 5605 5609 5614 5619 5625 5631 5636 5642
5713 5709 5704 5698 5693 5687 5681 5675 5669 5663 5657 5652 5646 5639 5631 5624 5618 5611 5604 5598 5593 5589 5585 5581 5579 5578 5577 5577 5577 5577 5578 5580 5582 5584 5587 5590 5594 5599 5604 5610 5616 5622 5627
5701 5695 5690 5684 5679 5673 5667 5661 5655 5648 5642 5636 5630 5623 5616 5609 5603 5596 5589 5583 5577 5573 5569 5565 5563 5562 5561 5561 5561 5562 5562 5564 5566 5569 5572 5576 5580 5584 5590 5596 5602 5608 5613
5687 5682 5676 5670 5664 5658 5652 5645 5639 5633 5627 5620 5614 5606 5599 5592 5585 5579 5573 5567 5561 5557 5553 5550 5547 5546 5545 5545 5545 5546 5547 5549 5551 5554 5557 5560 5565 5570 5575 5581 5587 5593 5600
5673 5667 5661 5655 5649 5643 5636 5630 5623 5617 5610 5603 5597 5590 5582 5575 5568 5562 5556 5550 5545 5540 5537 5534 5532 5531 5530 5529 5530 5530 5532 5533 5536 5538 5542 5545 5550 5555 5561 5567 5573 5578 5585
5657 5652 5646 5640 5633 5627 5620 5614 5607 5600 5593 5586 5579 5572 5566 5559 5552 5545 5540 5534 5529 5525 5521 5518 5516 5516 5515 5514 5514 5515 5517 5519 5521 5524 5527 5531 5536 5541 5546 5552 5558 5565 5571
5642 5636 5630 5623 5617 5610 5604 5597 5590 5583 5576 5570 5563 5556 5549 5542 5536 5530 5524 5519 5515 5511 5507 5504 5502 5501 5500 5500 5500 5501 5502 5505 5508 5511 5514 5518 5522 5527 5533 5539 5545 5552 5559
5626 5619 5613 5606 5600 5593 5587 5580 5573 5567 5560 5553 5546 5540 5533 5527 5521 5515 5509 5505 5500 5497 5494 5491 5489 5487 5487 5486 5487 5489 5491 5493 5496 5499 5502 5506 5510 5515 5521 5527 5534 5540 5547
5609 5602 5596 5589 5583 5576 5569 5563 5556 5550 5543 5537 5530 5524 5518 5512 5506 5501 5496 5491 5487 5484 5481 5479 5477 5476 5475 5475 5476 5478 5480 5482 5485 5488 5491 5495 5500 5505 5511 5517 5523 5529 5536